www.pogodaiklimat.ru

Погода и климат >> Архив погоды >> Индия >> Андхра-Прадеш >> Бапатла


ПОГОДА в Бапатле

  • Прогноз погоды в Бапатле
  • Монитор погоды в Бапатле

АРХИВ ПОГОДЫ в Бапатле

Время (UTC), дата Ветер
(напр.,м/с)
 
Видим.   Явления Облачность Т
(С)
Тd
(С)
f
(%)
Тe
(С)
Тes
(С)
Комфортность P
(гПа)
Po
(гПа)
Тmin
(С)
Tmax
(С)
R
(мм)
R24
(мм)
S
(см)
12 8.09 З 3 10 км 6/3 600 м
[Sc diur, vesp Ac trans Ci sp]
+32.0 +23.0 59 +42 +42 опасность
перегрева
1002.0 1001.3 +35.4
15 8.09 ЮЗ 1 4000 м 8/1 600 м
[Sc Ac trans Ci sp]
+29.0 +22.8 69 +38 +38 очень
душно
1004.7 1004.0
18 8.09 З 1 4000 м 8/1 600 м
[Sc Ac trans Ci sp]
+28.6 +24.5 79 +41 +41 опасность
перегрева
1005.0 1004.3
21 8.09 Ю 2 4000 м 8/4 600 м
[Sc Ac trans]
+27.6 +24.4 83 +39 +39 очень
душно
1003.9 1003.2
00 9.09 Ю 2 4000 м 8/1 600 м
[Sc Ac trans Ci sp]
+27.2 +24.0 83 +38 +38 очень
душно
1004.3 1003.6
03 9.09 ЮЗ 1 10 км 4/1 600 м
[Sc diur, vesp Ac trans]
+29.0 +23.8 74 +40 +46 очень
душно
1005.8 1005.1 +26.7 +35.4
06 9.09 З 3 10 км 5/3 600 м
[Sc diur, vesp Ac trans]
+33.0 +23.5 58 +44 +54 опасность
перегрева
1004.8 1004.1
09 9.09 З 3 10 км 8/4 600 м
[Sc diur, vesp Ac trans Ci sp]
+35.0 +22.2 48 +44 +49 опасность
перегрева
1001.7 1001.0
12 9.09 З 2 10 км 9/6 600 м
[Sc diur, vesp Ac trans]
+33.6 +22.2 51 +42 +43 опасность
перегрева
1001.4 1000.7 +36.0
15 9.09 Ю 2 4000 м 9/5 600 м
[Sc diur, vesp Ac trans]
+30.0 +23.6 69 +41 +41 опасность
перегрева
1003.4 1002.7
18 9.09 Ю 2 4000 м 8/4 600 м
[Sc diur, vesp Ac trans]
+28.6 +24.2 77 +40 +40 очень
душно
1004.4 1003.7
21 9.09 Ю 3 4000 м 9/5 600 м
[Sc diur, vesp Ac trans Ci sp]
+28.0 +23.6 77 +38 +38 очень
душно
1003.4 1002.7
00 10.09 ЮЗ 1 4000 м 9/5 600 м
[Sc diur, vesp Ac trans Ci sp]
+27.8 +24.0 80 +39 +39 очень
душно
1003.8 1003.1
03 10.09 З 3 10 км 9/4 600 м
[Sc diur, vesp Ac trans Ci sp]
+30.4 +22.8 64 +40 +42 очень
душно
1005.4 1004.7 +27.4 +36.0
06 10.09 З 2 10 км 8/4 600 м
[Sc Ac trans Ci sp]
+34.0 +23.0 53 +44 +52 опасность
перегрева
1004.6 1003.9
09 10.09 Ю 1 10 км 9/5 600 м
[Sc diur, vesp Ac trans Ci sp]
+35.0 +24.5 55 +48 +53 опасность
перегрева
1001.8 1001.1
12 10.09 Ю 2 10 км 10/5 600 м
[Sc diur, vesp Ac As]
+30.2 +24.1 70 +42 +42 опасность
перегрева
1002.4 1001.7 +36.2
15 10.09 Ю 1 4000 м 9/5 600 м
[Sc diur, vesp Ac As]
+28.6 +22.4 69 +37 +37 очень
душно
1004.9 1004.2
18 10.09 Ю 1 4000 м 9/5 600 м
[Sc diur, vesp Ac As]
+28.0 +23.3 76 +38 +38 очень
душно
1005.7 1005.0
21 10.09 ЮЗ 2 4000 м 6/3 600 м
[Sc diur, vesp Ac trans Ci sp]
+27.6 +23.5 78 +37 +37 очень
душно
1004.4 1003.7
00 11.09 Ю 2 4000 м 5/3 600 м
[Sc diur, vesp Ac trans]
+27.4 +23.6 80 +37 +37 очень
душно
1004.5 1003.8
03 11.09 З 2 10 км 9/3 600 м
[Sc Ac trans Ci fib]
+30.0 +23.9 70 +41 +44 опасность
перегрева
1006.8 1006.1 +27.1 +36.2
06 11.09 З 3 10 км 6/3 600 м
[Sc Ac trans Ci sp]
+34.4 +22.1 49 +43 +53 опасность
перегрева
1006.3 1005.6
09 11.09 Ю 2 10 км 8/4 600 м
[Sc diur, vesp Ac trans Ci fib]
+35.4 +21.3 44 +43 +48 опасность
перегрева
1004.2 1003.5
12 11.09 Ю 4 10 км 10/5 600 м
[Sc diur, vesp Ac As]
+31.0 +24.7 69 +44 +44 опасность
перегрева
1003.6 1002.9 +36.7
15 11.09 ЮВ 1 4000 м 6/4 600 м
[Sc diur, vesp Ac trans]
+28.6 +22.4 69 +37 +37 очень
душно
1006.4 1005.7
18 11.09 ЮВ 2 4000 м 9/5 600 м
[Sc diur, vesp Ac As]
+28.0 +22.0 70 +36 +36 очень
душно
1007.2 1006.5
21 11.09 ЮВ 2 4000 м 9/5 600 м
[Sc diur, vesp Ac As]
+27.6 +22.0 72 +36 +36 очень
душно
1005.7 1005.0
00 12.09 З 3 4000 м 10/5 600 м
[Sc diur, vesp Ac As]
+27.2 +21.8 72 +35 +35 очень
душно
1006.7 1006.0
03 12.09 Ю 1 10 км {дождь} 10/5 600 м
[Sc diur, vesp Ac As]
+26.2 +22.9 82 +35 +36 очень
душно
1009.0 1008.3 +25.4 +36.7 1
06 12.09 З 2 10 км {дождь} 10/3 600 м
[Sc Ac trans Cs]
+29.6 +23.2 69 +40 +48 очень
душно
1007.8 1007.1
09 12.09 СЗ 2 10 км 9/3 600 м
[Sc diur, vesp Ac trans Cs]
+32.0 +23.3 60 +43 +48 опасность
перегрева
1005.3 1004.6
12 12.09 ЮЗ 1 10 км 10/3 600 м
[Sc diur, vesp Ac trans Cs]
+32.4 +22.1 55 +41 +42 опасность
перегрева
1004.6 1003.9 +34.4
15 12.09 штиль 0 4000 м 8/4 600 м
[Sc Ac trans]
+29.6 +22.8 67 +39 +39 очень
душно
1006.9 1006.2
18 12.09 Ю 2 4000 м 8/4 600 м
[Sc diur, vesp Ac trans]
+28.0 +23.3 76 +38 +38 очень
душно
1008.7 1008.0
21 12.09 Ю 2 4000 м 8/4 600 м
[Sc diur, vesp Ac trans]
+27.6 +22.9 76 +37 +37 очень
душно
1006.8 1006.1
00 13.09 штиль 0 4000 м 8/3 600 м
[Sc Ac trans Ci sp]
+26.8 +23.2 81 +36 +36 очень
душно
1007.0 1006.3
03 13.09 штиль 0 10 км 5/0
[Ac trans Ci sp]
+29.6 +24.4 74 +42 +49 опасность
перегрева
1009.6 1008.9 +26.2 +34.4
06 13.09 ЮЗ 2 10 км 5/1 600 м
[Sc diur, vesp Ac trans Ci sp]
+33.6 +22.5 52 +43 +58 опасность
перегрева
1008.7 1008.0
09 13.09 ЮВ 2 10 км 8/4 600 м
[Sc diur, vesp Ac trans Ci sp]
+33.8 +23.1 54 +44 +50 опасность
перегрева
1005.5 1004.8
12 13.09 ЮВ 1 10 км 9/5 600 м
[Sc diur, vesp Ac As]
+30.0 +24.2 71 +42 +42 опасность
перегрева
1005.2 1004.5 +36.2
15 13.09 ЮВ 1 4000 м 6/4 600 м
[Sc diur, vesp Ac trans]
+28.0 +25.1 84 +40 +40 очень
душно
1007.5 1006.8
18 13.09 Ю 1 4000 м 5/3 600 м
[Sc Ac trans Ci sp]
+27.0 +24.1 84 +37 +37 очень
душно
1008.1 1007.4
21 13.09 Ю 3 4000 м 9/5 600 м
[Sc diur, vesp Ac trans Ci sp]
+26.8 +23.5 82 +36 +36 очень
душно
1006.6 1005.9
00 14.09 Ю 1 4000 м гроза, ливневой дождь 10/5 600 м
[Cb cap As op]
+22.6 +20.1 86 +29 +29 очень
душно
1007.8 1007.1 76
03 14.09 Ю 2 10 км в посл. час гроза 9/5 600 м
[Sc diur, vesp Ac As]
+26.6 +23.9 85 +37 +38 очень
душно
1008.8 1008.1 +27.8 +36.2 77
06 14.09 З 1 10 км {гроза} 6/4 600 м
[Sc diur, vesp Ac trans Ci sp]
+29.0 +25.9 83 +43 +55 опасность
перегрева
1007.7 1007.0
09 14.09 С 1 10 км 6/4 600 м
[Sc diur, vesp Ac trans]
+33.0 +26.3 68 +49 +57 опасность
перегрева
1005.4 1004.7
12 14.09 Ю 2 10 км 10/5 600 м
[Sc diur, vesp Ac As]
+29.6 +26.5 83 +45 +45 опасность
перегрева
1005.9 1005.2 +33.4
15 14.09 Ю 1 4000 м {дождь} 6/3 600 м
[Sc diur, vesp Ac trans Ci sp]
+24.0 +21.2 84 +30 +30 очень
душно
1007.5 1006.8 50
18 14.09 штиль 0 4000 м {дождь} 5/1 600 м
[Sc diur, vesp Ac trans Ci sp]
+23.8 +21.0 84 +30 +30 очень
душно
1008.1 1007.4 50
21 14.09 Ю 1 4000 м 8/4 600 м
[Sc diur, vesp Ac trans Ci sp]
+24.4 +21.6 84 +31 +31 очень
душно
1006.2 1005.5 50
00 15.09 Ю 3 4000 м гроза без осадков 10/5 600 м
[Cb cap Ac As]
+24.4 +21.6 84 +31 +31 очень
душно
1006.7 1006.0 50
03 15.09 З 2 10 км {гроза, дождь} 9/4 600 м
[Sc diur, vesp Ac trans Ci sp]
+26.0 +22.7 82 +34 +37 очень
душно
1008.4 1007.7 +23.5 +33.4 55
06 15.09 З 2 10 км {гроза, дождь} 8/4 600 м
[Sc diur, vesp Ac trans Ci sp]
+30.0 +26.3 81 +46 +55 опасность
перегрева
1007.2 1006.5
09 15.09 З 3 10 км 5/3 600 м
[Sc diur, vesp Ac trans Ci sp]
+31.8 +25.6 70 +47 +53 опасность
перегрева
1004.9 1004.2

 

Местоположение метеостанции Бапатла (Андхра-Прадеш, Индия): широта 15.90 долгота 80.47 высота над уровнем моря 6 м.

В архиве по умолчанию представлена погода в Бапатле за последнюю неделю. Архивные данные за месяц целиком и за предыдущие месяцы, начиная с января 2011 года, Вы можете получить, выбрав интересующий диапазон дат из раскрывающегося списка и нажав кнопку "Ввод!".


*Определитесь, кто Вы:
робот инопланетянин человек

Внимание! Время в таблицах - всемирное. Для получения местного времени необходимо прибавить поправку, которая равна 5.5 ч.

Смотрите также архив погоды в соседних городах и на ближайших метеорологических станциях:

Погода в Онголе (Андхра-Прадеш, Индия) (63 км)
Погода в Ганнавараме (Андхра-Прадеш, Индия) (78 км)
Погода в Мачилипатнаме (Андхра-Прадеш, Индия) (80 км)
Погода в Нандигаме (Андхра-Прадеш, Индия) (100 км)
Погода в Рентчайнтале (Андхра-Прадеш, Индия) (122 км)
Погода в Кавали (Андхра-Прадеш, Индия) (123 км)
Погода в Нарсапере (Андхра-Прадеш, Индия) (144 км)
Погода в Кхаммаме (Телингана, Индия) (154 км)
Погода в Неллуру (Андхра-Прадеш, Индия) (170 км)
Погода в Налгонде (Телингана, Индия) (179 км)

Пояснения к столбцам:

Ветер - указаны скорость ветра в м/с - средняя за 10 мин, порывы в срок и между сроками (в фигурных скобках) и направление, откуда дует ветер: С - северный, СВ - северо-восточный, В - восточный, ЮВ - юго-восточный, Ю - южный, ЮЗ - юго-западный, З - западный, СЗ - северо-западный.
Видимость - горизонтальная дальность видимости в метрах или километрах. При видимости от 1 до 10 км при отсутствии осадков обычно наблюдается дымка, при ухудшении видимости до 1 км и менее - туман. В сухую погоду видимость может ухудшаться дымом, пылью или мглою.
Явления - указаны атмосферные явления, наблюдавшиеся в срок или в последний час перед сроком; фигурными скобками обозначены явления, наблюдавшиеся между сроками (за 1-3 часа до срока); квадратными скобками обозначены град или гололедные отложения с указанием их диаметра в мм.
Облачность - указаны через наклонную черту общая и нижняя облачность в баллах и высота нижней границы облаков в метрах; квадратными скобками обозначены формы облаков: Ci - перистые, Cs - перисто-слоистые, Cc - перисто-кучевые, Ac - высококучевые, As - высокослоистые, Sc - слоисто-кучевые, Ns - слоисто-дождевые, Cu - кучевые, Cb - кучево-дождевые. Подробнее классификацию облаков см. в Атласе облаков (PDF).
T - Температура воздуха - температура, измеренная на высоте 2 м над землей.
Td - Температура точки росы - температура, при понижении до которой содержащийся в воздухе водяной пар достигнет насыщения.
f - Относительная влажность воздуха - влажноcть воздуха, измеренная на высоте 2 м над землей.
Te - Эффективная температура - температура, которую ощущает одетый по сезону человек в тени. Характеристика душности погоды. При расчете учитывается влияние влажности воздуха и скорости ветра на теплоощущения человека.
Tes - Эффективная температура на солнце - температура, которую ощущает человек, с поправкой на солнечный нагрев. Характеристика знойности погоды. Зависит от высоты солнца над горизонтом, облачности и скорости ветра. Ночью, в пасмурную погоду, а также при ветре 12 м/с и более поправка равна нулю.
P - Атмосферное давление - приведенное к уровню моря атмосферное давление.
Po - Атмосферное давление - измеренное на уровне метеостанции атмосферное давление.
Tmin - Минимальная температура - минимум температуры воздуха на высоте 2 м над землей.
Tmax - Максимальная температура - максимум температуры воздуха на высоте 2 м над землей.
R - Количество осадков - Количество выпавших осадков за период времени, мм. При наведении курсора мыши на число - период времени, за который выпало указанное количество осадков.
R24 - Количество осадков - Количество выпавших осадков за 24 часа, мм.
S - Снежный покров - Высота снежного покрова, см. При наведении курсора мыши на число - состояние снежного покрова и степень покрытия местности в баллах.